Home   Weather   Kralendijk   Past weeks
Flag for Caribbean Netherlands

Past Weather in Kralendijk, Bonaire, Caribbean Netherlands — Yesterday and Last 2 Weeks

Now
79 °F

Passing clouds.


Feels Like: 82 °F
Forecast: 82 / 77 °F
Wind: 15 mph from East

Location: Flamingo Airport - Bonaire

Current Time: Mar 21, 2019 at 8:26:00 pm

Latest Report: Mar 21, 2019 at 7:55 pm


Visibility: N/A

Pressure: 29.86 "Hg

Humidity: 79%

Dew Point: 72 °F

Location of KralendijkLocation

Past Weather in Kralendijk — Graph

°F

Kralendijk Temperature Yesterday

Maximum temperature yesterday: 84 °F (at 10:55 am)
Minimum temperature yesterday: 79 °F (at 12:55 am)
Average temperature yesterday: 81 °F

High & Low Weather Summary for the Past Weeks

 TemperatureHumidityPressure
High86 °F (Mar 9, 11:55 am)100% (Mar 7, 9:55 am)30.01 "Hg (Mar 7, 9:55 am)
Low72 °F (Mar 7, 9:55 am)58% (Mar 12, 1:55 pm)29.83 "Hg (Mar 9, 3:55 am)
Average80 °F75%29.91 "Hg
* Reported Mar 6 6:55 pm — Mar 21 6:55 pm, Kralendijk. Weather by CustomWeather, © 2019

Note: Actual official high and low records may vary slightly from our data, if they occured in-between our weather recording intervals... More about our weather records

Advertising

Kralendijk Weather History for the Previous 24 Hours

Scroll right to see more
 ConditionsComfort  
Time TempWeatherWind HumidityBarometerVisibility
6:55 pm
Thu, Mar 21
79 °FWarm.16 mph79%29.86 "HgN/A
5:55 pm81 °FPassing clouds.16 mph74%29.83 "HgN/A
4:55 pm82 °FBroken clouds.16 mph70%29.83 "HgN/A
3:55 pm84 °FPartly sunny.14 mph66%29.86 "HgN/A
2:55 pm84 °FPartly sunny.17 mph62%29.86 "HgN/A
1:55 pm86 °FScattered clouds.17 mph62%29.89 "HgN/A
12:55 pm84 °FPartly sunny.17 mph66%29.92 "HgN/A
11:55 am84 °FMostly cloudy.16 mph62%29.95 "HgN/A
10:55 am84 °FBroken clouds.17 mph66%29.95 "HgN/A
9:55 am84 °FMore clouds than sun.17 mph66%29.95 "HgN/A
8:55 am82 °FPassing clouds.15 mph70%29.95 "HgN/A
7:55 am81 °FScattered clouds.15 mph74%29.92 "HgN/A
6:55 am79 °FPassing clouds.13 mph74%29.92 "HgN/A
5:55 am79 °FClear.14 mph74%29.89 "HgN/A
4:55 am77 °FPassing clouds.10 mph79%29.89 "HgN/A
3:55 am79 °FPassing clouds.12 mph79%29.86 "HgN/A
2:55 am79 °FPartly cloudy.9 mph79%29.89 "HgN/A
1:55 am79 °FPartly cloudy.12 mph79%29.89 "HgN/A
12:55 am79 °FPassing clouds.10 mph79%29.92 "HgN/A
11:55 pm
Wed, Mar 20
79 °FPassing clouds.12 mph79%29.92 "HgN/A
10:55 pm79 °FPassing clouds.10 mph79%29.92 "HgN/A
9:55 pm79 °FPassing clouds.14 mph74%29.92 "HgN/A
8:55 pm79 °FPassing clouds.13 mph74%29.89 "HgN/A
Weather by CustomWeather, © 2019

See weather overview